Location: Harwich
(41.7160°N, 69.9939°W)
Time: 18:52:04
(UTC+01:00)

Vanguard 1 Rocket - Visible Passes

Search period start: 22 February 2024 00:00
Search period end: 03 March 2024 00:00
Orbit: 654 x 4218 km, 34.3° (Epoch: 21 February)

Date Brightness Start Highest point End Pass type
(mag) Time Alt. Az. Time Alt. Az. Time Alt. Az.
22 Feb 11.7 10:57:58 10° S 11:11:00 19° SE 11:20:36 10° ESE visible
23 Feb 12.0 09:50:26 10° SSE 09:57:17 12° SE 10:03:17 10° ESE visible
24 Feb 11.5 10:55:55 10° SSW 11:12:29 26° SSE 11:23:55 10° E visible
25 Feb 11.8 09:45:25 10° S 09:58:39 18° SE 10:09:10 10° ESE visible
26 Feb 11.3 10:54:41 10° SSW 11:13:52 32° SSE 11:26:37 10° E visible
27 Feb 11.6 09:42:50 10° S 09:59:54 24° SE 10:12:51 10° E visible
28 Feb 11.8 08:34:13 10° SSE 08:45:55 15° SE 08:56:07 10° ESE visible
28 Feb 11.1 10:53:58 10° SSW 11:15:10 39° SSE 11:28:56 10° E visible
29 Feb 11.4 09:41:16 10° SSW 10:01:01 30° SE 10:15:42 10° E visible
01 Mar 11.6 08:30:47 10° S 08:46:54 21° SE 09:00:33 10° E visible
01 Mar 10.9 10:53:40 10° SW 11:16:25 45° SSE 11:31:03 10° E visible
02 Mar 11.8 07:25:49 10° SSE 07:33:02 12° SE 07:39:57 10° ESE visible
02 Mar 11.2 09:40:21 10° SSW 10:02:04 36° SSE 10:18:05 10° E visible
